Location: Bluff Heights
(33.7692°N, 118.1592°W)
Time: 08:29:25
(UTC+00:00)

First-Move - Pass Details

Date: 28 September 2021
Orbit: 574 x 666 km, 97.6° (Epoch: 16 October)

Event Time Altitude Azimuth Distance (km) Brightness Sun altitude
Rises 11:47:35 0° 24° (NNE) 2,836 ? -25.0°
Reaches altitude 10° 11:50:00 10° 36° (NE) 1,918 ? -24.5°
Maximum altitude 11:53:37 28° 97° (E) 1,094 ? -23.8°
Drops below altitude 10° 11:57:08 10° 157° (SSE) 1,880 ? -23.1°
Sets 11:59:29 0° 169° (S) 2,769 ? -22.6°
